• In Belarus
  • List of Countries
  • For 7 days
  • Water Temperature
  • Satellite Maps
  • Weather Map
  • Weather Widgets
  • user-avatar
    Login

    Hourly Weather Townsville

    Today, 21 August, Monday

    Time Temperature Precipitation Wind Pressure Humidity
    00:00 +15°C° 0 mm 4 mps 756 mmHg 80%
    01:00 +14°C° 0 mm 4 mps 757 mmHg 80%
    02:00 +14°C° 0 mm 4 mps 756 mmHg 77%
    03:00 +14°C° 0 mm 4 mps 756 mmHg 74%
    04:00 +13°C° 0 mm 3 mps 756 mmHg 76%
    05:00 +13°C° 0 mm 3 mps 756 mmHg 73%
    06:00 +13°C° 0 mm 3 mps 756 mmHg 70%
    07:00 +13°C° 0 mm 3 mps 757 mmHg 68%
    08:00 +17°C° 0 mm 3 mps 757 mmHg 61%
    09:00 +20°C° 0 mm 4 mps 757 mmHg 54%
    10:00 +24°C° 0 mm 3 mps 757 mmHg 43%
    11:00 +25°C° 0 mm 3 mps 757 mmHg 42%
    12:00 +26°C° 0 mm 3 mps 756 mmHg 40%
    13:00 +27°C° 0 mm 3 mps 756 mmHg 39%
    14:00 +27°C° 0 mm 3 mps 756 mmHg 42%
    15:00 +26°C° 0 mm 3 mps 755 mmHg 45%
    16:00 +26°C° 0 mm 2 mps 755 mmHg 47%
    17:00 +24°C° 0 mm 2 mps 755 mmHg 56%
    18:00 +21°C° 0 mm 2 mps 755 mmHg 64%
    19:00 +20°C° 0 mm 1 mps 756 mmHg 73%
    20:00 +20°C° 0 mm 1 mps 756 mmHg 77%
    21:00 +19°C° 0 mm 1 mps 756 mmHg 80%
    22:00 +19°C° 0 mm 1 mps 757 mmHg 83%
    23:00 +18°C° 0 mm 1 mps 757 mmHg 86%

    Tomorrow, 22 August, Tuesday

    Time Temperature Precipitation Wind Pressure Humidity
    00:00 +17°C° 0 mm 2 mps 757 mmHg 88%
    01:00 +17°C° 0 mm 2 mps 757 mmHg 91%
    02:00 +17°C° 0 mm 2 mps 756 mmHg 91%
    03:00 +18°C° 0 mm 1 mps 756 mmHg 92%
    04:00 +18°C° 0 mm 1 mps 756 mmHg 93%
    05:00 +18°C° 0 mm 1 mps 756 mmHg 93%
    06:00 +18°C° 0 mm 1 mps 756 mmHg 93%
    07:00 +19°C° 0 mm 1 mps 757 mmHg 93%
    08:00 +21°C° 0 mm 1 mps 757 mmHg 80%
    09:00 +24°C° 0 mm 1 mps 757 mmHg 67%
    10:00 +27°C° 0 mm 1 mps 757 mmHg 54%
    11:00 +28°C° 0 mm 2 mps 757 mmHg 49%
    12:00 +29°C° 0 mm 2 mps 756 mmHg 45%
    13:00 +30°C° 0 mm 2 mps 755 mmHg 40%
    14:00 +30°C° 0 mm 3 mps 755 mmHg 44%
    15:00 +29°C° 0 mm 3 mps 755 mmHg 47%
    16:00 +28°C° 0 mm 3 mps 755 mmHg 51%
    17:00 +26°C° 0 mm 3 mps 755 mmHg 60%
    18:00 +24°C° 0 mm 3 mps 755 mmHg 70%
    19:00 +21°C° 0 mm 3 mps 756 mmHg 80%
    20:00 +20°C° 0 mm 3 mps 756 mmHg 82%
    21:00 +20°C° 0 mm 3 mps 757 mmHg 84%
    22:00 +20°C° 0 mm 3 mps 757 mmHg 85%
    23:00 +20°C° 0 mm 3 mps 757 mmHg 88%

    Day after tomorrow, 23 August, Wednesday

    Time Temperature Precipitation Wind Pressure Humidity
    00:00 +19°C° 0 mm 3 mps 757 mmHg 90%
    01:00 +19°C° 0 mm 3 mps 757 mmHg 92%
    02:00 +19°C° 0 mm 2 mps 757 mmHg 92%
    03:00 +19°C° 0 mm 2 mps 757 mmHg 92%
    04:00 +19°C° 0 mm 2 mps 756 mmHg 92%
    05:00 +19°C° 0 mm 2 mps 757 mmHg 91%
    06:00 +20°C° 0 mm 2 mps 757 mmHg 90%
    07:00 +20°C° 0 mm 2 mps 757 mmHg 89%
    08:00 +23°C° 0 mm 2 mps 757 mmHg 79%
    09:00 +25°C° 0 mm 3 mps 758 mmHg 69%
    10:00 +27°C° 0 mm 3 mps 758 mmHg 59%
    11:00 +28°C° 0 mm 3 mps 757 mmHg 54%
    12:00 +29°C° 0 mm 3 mps 756 mmHg 49%
    13:00 +30°C° 0 mm 3 mps 756 mmHg 44%
    14:00 +30°C° 0 mm 3 mps 755 mmHg 45%
    15:00 +29°C° 0 mm 3 mps 755 mmHg 46%
    16:00 +28°C° 0 mm 3 mps 755 mmHg 48%
    17:00 +26°C° 0 mm 3 mps 755 mmHg 58%
    18:00 +24°C° 0 mm 2 mps 755 mmHg 68%
    19:00 +21°C° 0 mm 2 mps 756 mmHg 78%
    20:00 +20°C° 0 mm 2 mps 756 mmHg 81%
    21:00 +20°C° 0 mm 2 mps 756 mmHg 85%
    22:00 +20°C° 0 mm 2 mps 757 mmHg 88%
    23:00 +19°C° 0 mm 2 mps 756 mmHg 90%

    24 August, Thursday

    Time Temperature Precipitation Wind Pressure Humidity
    00:00 +19°C° 0 mm 2 mps 756 mmHg 91%
    01:00 +19°C° 0 mm 2 mps 756 mmHg 93%
    02:00 +19°C° 0 mm 2 mps 755 mmHg 93%
    03:00 +19°C° 0 mm 2 mps 755 mmHg 94%
    04:00 +19°C° 0 mm 2 mps 755 mmHg 95%
    05:00 +19°C° 0 mm 2 mps 755 mmHg 94%
    06:00 +20°C° 0 mm 1 mps 755 mmHg 93%
    07:00 +20°C° 0 mm 1 mps 756 mmHg 92%
    08:00 +23°C° 0 mm 1 mps 756 mmHg 79%
    09:00 +25°C° 0 mm 2 mps 756 mmHg 67%
    10:00 +27°C° 0 mm 2 mps 756 mmHg 54%
    11:00 +29°C° 0 mm 2 mps 755 mmHg 50%
    12:00 +30°C° 0 mm 2 mps 754 mmHg 45%
    13:00 +31°C° 0 mm 2 mps 754 mmHg 40%
    14:00 +30°C° 0 mm 3 mps 753 mmHg 42%
    15:00 +30°C° 0 mm 3 mps 753 mmHg 44%
    16:00 +30°C° 0 mm 3 mps 752 mmHg 46%
    17:00 +27°C° 0 mm 3 mps 753 mmHg 56%
    18:00 +25°C° 0 mm 3 mps 753 mmHg 67%
    19:00 +23°C° 0 mm 2 mps 753 mmHg 78%
    20:00 +21°C° 0 mm 2 mps 754 mmHg 80%
    21:00 +21°C° 0 mm 2 mps 754 mmHg 82%
    22:00 +20°C° 0 mm 2 mps 755 mmHg 84%
    23:00 +21°C° 0 mm 1 mps 754 mmHg 85%

    25 August, Friday

    Time Temperature Precipitation Wind Pressure Humidity
    00:00 +21°C° 0 mm 1 mps 754 mmHg 87%
    01:00 +20°C° 0 mm 1 mps 754 mmHg 88%
    02:00 +20°C° 0 mm 1 mps 754 mmHg 87%
    03:00 +20°C° 0 mm 1 mps 754 mmHg 86%
    04:00 +18°C° 0 mm 2 mps 754 mmHg 84%
    05:00 +18°C° 0 mm 2 mps 754 mmHg 75%
    06:00 +18°C° 0 mm 3 mps 755 mmHg 66%
    07:00 +18°C° 0 mm 3 mps 755 mmHg 58%
    08:00 +20°C° 0 mm 4 mps 755 mmHg 46%
    09:00 +23°C° 0 mm 4 mps 756 mmHg 34%
    10:00 +26°C° 0 mm 5 mps 756 mmHg 22%
    11:00 +28°C° 0 mm 4 mps 755 mmHg 21%
    12:00 +30°C° 0 mm 3 mps 754 mmHg 20%
    13:00 +31°C° 0 mm 3 mps 754 mmHg 19%
    14:00 +31°C° 0 mm 3 mps 753 mmHg 19%
    15:00 +31°C° 0 mm 3 mps 753 mmHg 19%
    16:00 +32°C° 0 mm 4 mps 753 mmHg 18%
    17:00 +28°C° 0 mm 3 mps 753 mmHg 26%
    18:00 +26°C° 0 mm 3 mps 754 mmHg 35%
    19:00 +23°C° 0 mm 2 mps 754 mmHg 43%
    20:00 +21°C° 0 mm 3 mps 755 mmHg 52%
    21:00 +20°C° 0 mm 3 mps 755 mmHg 60%
    22:00 +19°C° 0 mm 3 mps 756 mmHg 69%
    23:00 +18°C° 0 mm 3 mps 756 mmHg 74%

    26 August, Saturday

    Time Temperature Precipitation Wind Pressure Humidity
    00:00 +18°C° 0 mm 3 mps 755 mmHg 78%
    01:00 +17°C° 0 mm 3 mps 755 mmHg 83%
    02:00 +17°C° 0 mm 3 mps 755 mmHg 80%
    03:00 +17°C° 0 mm 3 mps 755 mmHg 77%
    04:00 +16°C° 0 mm 3 mps 755 mmHg 74%
    05:00 +15°C° 0 mm 4 mps 755 mmHg 67%
    06:00 +15°C° 0 mm 4 mps 756 mmHg 59%
    07:00 +15°C° 0 mm 4 mps 757 mmHg 52%
    08:00 +19°C° 0 mm 4 mps 757 mmHg 47%
    09:00 +22°C° 0 mm 5 mps 757 mmHg 42%
    10:00 +25°C° 0 mm 5 mps 757 mmHg 37%
    11:00 +27°C° 0 mm 5 mps 757 mmHg 33%
    12:00 +28°C° 0 mm 4 mps 756 mmHg 29%
    13:00 +30°C° 0 mm 4 mps 755 mmHg 25%
    14:00 +30°C° 0 mm 5 mps 755 mmHg 26%
    15:00 +29°C° 0 mm 5 mps 755 mmHg 27%
    16:00 +29°C° 0 mm 5 mps 754 mmHg 28%
    17:00 +26°C° 0 mm 5 mps 755 mmHg 42%
    18:00 +22°C° 0 mm 4 mps 755 mmHg 57%
    19:00 +19°C° 0 mm 4 mps 756 mmHg 72%
    20:00 +19°C° 0 mm 4 mps 756 mmHg 76%
    21:00 +18°C° 0 mm 4 mps 757 mmHg 80%
    22:00 +18°C° 0 mm 4 mps 757 mmHg 85%
    23:00 +17°C° 0 mm 4 mps 757 mmHg 84%
    Show more